STARLINK-35971

Last updated on Fri Dec 19 2025 00:02:08 GMT+0000 (Coordinated Universal Time)

1 66895U 25283T 25352.58336806 -.01522407 00000+0 -99282-2 0 9994 2 66895 53.1547 44.3614 0001260 68.3047 91.4003 15.78152858 3369
UTC large
Height (km)
Speed (km/s)
/
Latitude / Longitude
Inclination (degrees)
Orbital Period (minutes)
Azimuth
Elevation
Range (km)
Doppler Factor

Next 0 passes for location: London (51.5072 / 0.1276)

Sorry there are no passes over London.